Regional Weather Roundup
Issued by NWS Charleston, WV

Home | Current Version | Previous Version | Graphics & Text | Print | Product List | Glossary On
Versions: 1 2 3 4 5 6 7 8 9 10 11 12 13 14 15 16 17 18 19 20 21 22 23 24 25 26 27 28 29 30 31 32 33 34 35 36 37 38 39 40 41 42 43 44 45 46 47 48 49 50
000
ASUS41 KRLX 251210
RWRRLX
West Virginia Regional Weather Roundup
National Weather Service Charleston WV
800 AM EDT TUE APR 25 2017

Note: "fair" indicates few or no clouds below 12,000 feet with no
significant weather and/or obstructions to visibility.

WVZ003-251300-
Northern Panhandle of West Virginia

CITY           SKY/WX    TMP DP  RH WIND       PRES   REMARKS
WHEELING       CLOUDY    50  47  89 E9        29.89R
$$

WVZ009-251300-
Northwest West Virginia

CITY           SKY/WX    TMP DP  RH WIND       PRES   REMARKS
PARKERSBURG    CLOUDY    55  47  74 NE6       29.87R
$$

WVZ006-251300-
Western West Virginia

CITY           SKY/WX    TMP DP  RH WIND       PRES   REMARKS
HUNTINGTON     CLOUDY    53  48  83 NE7       29.82R
$$

WVZ015-251300-
West Central West Virginia

CITY           SKY/WX    TMP DP  RH WIND       PRES   REMARKS
CHARLESTON     LGT RAIN  52  50  93 CALM      29.82R
$$

WVZ022-031-251300-
North Central West Virginia

CITY           SKY/WX    TMP DP  RH WIND       PRES   REMARKS
CLARKSBURG     PTSUNNY   53  46  77 VRB6      29.87R
MORGANTOWN     CLOUDY    53  46  77 NE9       29.89R
$$

WVZ025-035-042-045-251300-
Southern West Virginia

CITY           SKY/WX    TMP DP  RH WIND       PRES   REMARKS
BECKLEY        CLOUDY    54  50  86 E5        29.81R
LOGAN          CLOUDY    54  54 100 N3        29.80R
BLUEFIELD      LGT RAIN  49  48  97 CALM      29.81R FOG
LEWISBURG      CLOUDY    54  50  87 NE9       29.80R
$$

WVZ047-251300-
Northern Mountains of West Virginia

CITY           SKY/WX    TMP DP  RH WIND       PRES   REMARKS
ELKINS         CLOUDY    54  47  77 NW5       29.85R
$$

WVZ052-251300-
Eastern Panhandle of West Virginia

CITY           SKY/WX    TMP DP  RH WIND       PRES   REMARKS
MARTINSBURG    CLOUDY    50  46  86 N9        29.92R
PETERSBURG     CLOUDY    49  49  97 N3        29.94S FOG
$$



USA.gov is the U.S. government's official web portal to all federal, state and local government web resources and services.